• In Romania
  • List of Countries
  • For 7 days
  • Water Temperature
  • Satellite Maps
  • Weather Map
  • Weather Widgets
  • user-avatar
    Login

    Hourly Weather Ordino

    Today, 21 January, Sunday

    Time Temperature Precipitation Wind Pressure Humidity
    00:00 +3°C° 0.2 mm 4 mps 633 mmHg 89%
    01:00 +3°C° 0.3 mm 4 mps 633 mmHg 89%
    02:00 +3°C° 0.3 mm 3 mps 633 mmHg 90%
    03:00 +3°C° 0.3 mm 3 mps 633 mmHg 90%
    04:00 +3°C° 0.5 mm 3 mps 633 mmHg 90%
    05:00 +3°C° 0.5 mm 3 mps 633 mmHg 91%
    06:00 +3°C° 0.5 mm 3 mps 633 mmHg 91%
    07:00 +3°C° 0.5 mm 3 mps 634 mmHg 91%
    08:00 +4°C° 0.5 mm 3 mps 634 mmHg 90%
    09:00 +4°C° 0.5 mm 3 mps 635 mmHg 90%
    10:00 +4°C° 0.7 mm 3 mps 635 mmHg 89%
    11:00 +5°C° 0.7 mm 3 mps 635 mmHg 88%
    12:00 +5°C° 0.7 mm 3 mps 636 mmHg 86%
    13:00 +5°C° 0.6 mm 3 mps 636 mmHg 86%
    14:00 +5°C° 0.6 mm 3 mps 636 mmHg 86%
    15:00 +5°C° 0.6 mm 3 mps 636 mmHg 86%
    16:00 +5°C° 0.4 mm 3 mps 636 mmHg 87%
    17:00 +4°C° 0.4 mm 3 mps 636 mmHg 88%
    18:00 +4°C° 0.4 mm 3 mps 636 mmHg 89%
    19:00 +4°C° 0.1 mm 3 mps 636 mmHg 88%
    20:00 +3°C° 0.1 mm 3 mps 637 mmHg 88%
    21:00 +3°C° 0.1 mm 3 mps 637 mmHg 87%
    22:00 +3°C° 0 mm 3 mps 637 mmHg 85%
    23:00 +2°C° 0 mm 3 mps 637 mmHg 84%

    Tomorrow, 22 January, Monday

    Time Temperature Precipitation Wind Pressure Humidity
    00:00 +2°C° 0 mm 3 mps 637 mmHg 83%
    01:00 +2°C° 0 mm 3 mps 637 mmHg 82%
    02:00 +1°C° 0 mm 3 mps 636 mmHg 81%
    03:00 +1°C° 0 mm 3 mps 636 mmHg 80%
    04:00 +1°C° 0 mm 3 mps 636 mmHg 79%
    05:00 +1°C° 0 mm 3 mps 636 mmHg 79%
    06:00 +1°C° 0 mm 3 mps 636 mmHg 78%
    07:00 +2°C° 0 mm 3 mps 636 mmHg 75%
    08:00 +2°C° 0 mm 3 mps 637 mmHg 71%
    09:00 +3°C° 0 mm 3 mps 637 mmHg 68%
    10:00 +5°C° 0 mm 3 mps 638 mmHg 66%
    11:00 +7°C° 0 mm 3 mps 638 mmHg 64%
    12:00 +8°C° 0 mm 3 mps 639 mmHg 62%
    13:00 +8°C° 0 mm 3 mps 638 mmHg 63%
    14:00 +8°C° 0 mm 3 mps 638 mmHg 65%
    15:00 +8°C° 0 mm 3 mps 638 mmHg 66%
    16:00 +5°C° 0 mm 3 mps 637 mmHg 70%
    17:00 +3°C° 0 mm 3 mps 637 mmHg 75%
    18:00 +2°C° 0 mm 3 mps 637 mmHg 79%
    19:00 +2°C° 0 mm 3 mps 637 mmHg 77%
    20:00 +2°C° 0 mm 3 mps 637 mmHg 74%
    21:00 +2°C° 0 mm 3 mps 637 mmHg 72%
    22:00 +2°C° 0 mm 3 mps 637 mmHg 73%
    23:00 +3°C° 0 mm 2 mps 637 mmHg 75%

    Day after tomorrow, 23 January, Tuesday

    Time Temperature Precipitation Wind Pressure Humidity
    00:00 +3°C° 0 mm 2 mps 638 mmHg 76%
    01:00 +3°C° 0.1 mm 2 mps 637 mmHg 79%
    02:00 +3°C° 0.1 mm 2 mps 637 mmHg 81%
    03:00 +4°C° 0.1 mm 2 mps 637 mmHg 84%
    04:00 +4°C° 0 mm 2 mps 638 mmHg 85%
    05:00 +3°C° 0 mm 2 mps 638 mmHg 87%
    06:00 +3°C° 0 mm 2 mps 638 mmHg 88%
    07:00 +4°C° 0.1 mm 2 mps 638 mmHg 86%
    08:00 +4°C° 0.1 mm 2 mps 639 mmHg 85%
    09:00 +5°C° 0.1 mm 2 mps 639 mmHg 83%
    10:00 +6°C° 0 mm 2 mps 639 mmHg 79%
    11:00 +7°C° 0 mm 2 mps 640 mmHg 76%
    12:00 +10°C° 0 mm 1 mps 640 mmHg 72%
    13:00 +9°C° 0 mm 1 mps 640 mmHg 73%
    14:00 +9°C° 0 mm 1 mps 640 mmHg 73%
    15:00 +9°C° 0 mm 1 mps 639 mmHg 74%
    16:00 +8°C° 0 mm 1 mps 639 mmHg 79%
    17:00 +6°C° 0 mm 1 mps 639 mmHg 84%
    18:00 +4°C° 0 mm 0 mps 638 mmHg 88%
    19:00 +4°C° 0 mm 0 mps 638 mmHg 88%
    20:00 +4°C° 0 mm 1 mps 638 mmHg 87%
    21:00 +4°C° 0 mm 1 mps 638 mmHg 87%
    22:00 +4°C° 0 mm 1 mps 638 mmHg 87%
    23:00 +4°C° 0 mm 1 mps 638 mmHg 86%

    24 January, Wednesday

    Time Temperature Precipitation Wind Pressure Humidity
    00:00 +4°C° 0 mm 1 mps 638 mmHg 86%
    01:00 +4°C° 0 mm 1 mps 638 mmHg 86%
    02:00 +3°C° 0 mm 1 mps 638 mmHg 86%
    03:00 +3°C° 0 mm 1 mps 637 mmHg 86%
    04:00 +3°C° 0 mm 1 mps 637 mmHg 85%
    05:00 +3°C° 0 mm 1 mps 637 mmHg 84%
    06:00 +3°C° 0 mm 1 mps 637 mmHg 84%
    07:00 +4°C° 0 mm 1 mps 637 mmHg 80%
    08:00 +5°C° 0 mm 1 mps 638 mmHg 76%
    09:00 +6°C° 0 mm 1 mps 638 mmHg 73%
    10:00 +7°C° 0 mm 1 mps 639 mmHg 68%
    11:00 +8°C° 0 mm 2 mps 639 mmHg 64%
    12:00 +9°C° 0 mm 2 mps 639 mmHg 59%
    13:00 +9°C° 0 mm 2 mps 639 mmHg 61%
    14:00 +9°C° 0 mm 2 mps 638 mmHg 62%
    15:00 +8°C° 0 mm 2 mps 638 mmHg 63%
    16:00 +7°C° 0 mm 2 mps 637 mmHg 69%
    17:00 +5°C° 0 mm 2 mps 636 mmHg 76%
    18:00 +4°C° 0 mm 1 mps 636 mmHg 82%
    19:00 +4°C° 0 mm 1 mps 636 mmHg 80%
    20:00 +3°C° 0 mm 1 mps 636 mmHg 78%
    21:00 +3°C° 0 mm 1 mps 635 mmHg 76%
    22:00 +3°C° 0 mm 1 mps 635 mmHg 75%
    23:00 +2°C° 0 mm 2 mps 635 mmHg 75%

    25 January, Thursday

    Time Temperature Precipitation Wind Pressure Humidity
    00:00 +1°C° 0 mm 2 mps 635 mmHg 74%
    01:00 +1°C° 0 mm 2 mps 634 mmHg 74%
    02:00 +1°C° 0 mm 2 mps 634 mmHg 74%
    03:00 +1°C° 0 mm 2 mps 633 mmHg 74%
    04:00 +2°C° 0 mm 1 mps 633 mmHg 73%
    05:00 +2°C° 0 mm 1 mps 633 mmHg 72%
    06:00 +2°C° 0 mm 1 mps 633 mmHg 71%
    07:00 +3°C° 0 mm 1 mps 633 mmHg 68%
    08:00 +4°C° 0 mm 1 mps 633 mmHg 65%
    09:00 +4°C° 0 mm 1 mps 634 mmHg 62%
    10:00 +6°C° 0 mm 1 mps 634 mmHg 59%
    11:00 +6°C° 0 mm 2 mps 634 mmHg 56%
    12:00 +7°C° 0 mm 2 mps 634 mmHg 53%
    13:00 +7°C° 0 mm 2 mps 633 mmHg 56%
    14:00 +6°C° 0 mm 2 mps 633 mmHg 60%
    15:00 +6°C° 0 mm 2 mps 632 mmHg 63%
    16:00 +4°C° 0.1 mm 2 mps 631 mmHg 71%
    17:00 +4°C° 0.1 mm 1 mps 631 mmHg 80%
    18:00 +2°C° 0.1 mm 1 mps 630 mmHg 88%
    19:00 +2°C° 0.5 mm 1 mps 630 mmHg 89%
    20:00 +2°C° 0.5 mm 1 mps 630 mmHg 91%
    21:00 +1°C° 0.5 mm 2 mps 630 mmHg 92%
    22:00 -1°C° 1 mm 2 mps 630 mmHg 92%
    23:00 -1°C° 1 mm 2 mps 630 mmHg 93%

    26 January, Friday

    Time Temperature Precipitation Wind Pressure Humidity
    00:00 -1°C° 1 mm 3 mps 630 mmHg 93%
    01:00 -2°C° 1.9 mm 3 mps 630 mmHg 93%
    02:00 -2°C° 1.9 mm 3 mps 629 mmHg 93%
    03:00 -4°C° 1.9 mm 3 mps 629 mmHg 93%
    04:00 -4°C° 0.9 mm 3 mps 629 mmHg 92%
    05:00 -4°C° 0.9 mm 3 mps 629 mmHg 91%
    06:00 -5°C° 0.9 mm 3 mps 629 mmHg 90%
    07:00 -4°C° 0.3 mm 3 mps 630 mmHg 89%
    08:00 -4°C° 0.3 mm 3 mps 630 mmHg 87%
    09:00 -4°C° 0.3 mm 3 mps 631 mmHg 85%
    10:00 -2°C° 0.2 mm 3 mps 631 mmHg 83%
    11:00 -2°C° 0.2 mm 3 mps 631 mmHg 80%
    12:00 -1°C° 0.2 mm 3 mps 632 mmHg 78%
    13:00 -1°C° 0.1 mm 3 mps 632 mmHg 77%
    14:00 -1°C° 0.1 mm 3 mps 632 mmHg 76%
    15:00 -1°C° 0.1 mm 3 mps 632 mmHg 75%
    16:00 -4°C° 0.1 mm 3 mps 632 mmHg 78%
    17:00 -5°C° 0.1 mm 3 mps 632 mmHg 81%
    18:00 -5°C° 0.1 mm 2 mps 632 mmHg 83%
    19:00 -6°C° 0 mm 3 mps 632 mmHg 83%
    20:00 -6°C° 0 mm 3 mps 633 mmHg 82%
    21:00 -6°C° 0 mm 3 mps 633 mmHg 82%
    22:00 -6°C° 0 mm 3 mps 633 mmHg 82%
    23:00 -7°C° 0 mm 3 mps 633 mmHg 82%
    Show more